Location: Allen Generating Plant
(35.0740°N, 90.1490°W)
Time: 17:03:56
(UTC+00:00)

A-11 Canister half - Pass Details

Date: 23 December 2025
Orbit: 1526 x 1682 km, 47.3° (Epoch: 12 January)

Event Time Altitude Azimuth Distance (km) Brightness Sun altitude
Rises 11:41:28 0° 202° (SSW) 4,776 11.5 -16.8°
Reaches altitude 10° 11:44:48 10° 195° (SSW) 3,816 11.1 -16.1°
Maximum altitude 11:53:35 39° 130° (SE) 2,285 10.5 -14.4°
Drops below altitude 10° 12:02:36 10° 66° (ENE) 3,926 11.8 -12.7°
Sets 12:06:02 0° 59° (ENE) 4,927 12.3 -12.0°
